Location: Marcé
(47.5801°N, 0.3280°W)
Time: 15:32:28
(UTC+01:00)

Tiros 1 despin weight - Pass Details

Date: 10 December 2021
Orbit: 592 x 641 km, 48.2° (Epoch: 22 January)

Event Time Altitude Azimuth Distance (km) Brightness Sun altitude
Rises 17:58:32 0° 282° (WNW) 2,827 ? -8.0°
Reaches altitude 10° 18:01:22 10° 264° (W) 1,920 ? -8.4°
Maximum altitude 18:04:24 18° 220° (SW) 1,450 ? -8.9°
Drops below altitude 10° 18:07:26 10° 176° (S) 1,917 ? -9.3°
Sets 18:10:16 0° 158° (SSE) 2,819 ? -9.8°
